[[{"header":{"parameterUnit":"m.s-1","parameterCategory":1,"la1":30.2991,"la2":30.254,"lo1":-89.0895,"lo2":-89.0444,"dy":0.0017,"dx":0.0017,"nx":28,"ny":28,"refTime":"2024-05-06T21:00:00:Z","depth":0,"parameterNumber":2,"parameterNumberName":"U-component_of_WINDS"},"data":[0,0,0,0,0,0,0,0,0,0,0,0,0,0,0,0,0,0,0,0,0,0,0,0,0,0,0,0,0,0,0,0,0,0,0,0,0,0,0,0,0,0,0,0,0,0,0,0,0,0,0,0,0,0,0,0,0,0,-1.2897,-1.2897,0,-1.289,-1.289,-1.289,-1.289,-1.289,-1.289,-1.289,-1.2883,-1.2882,-1.2882,0,0,0,0,0,0,0,0,0,0,0,0,0,-1.291,-1.291,-1.2897,-1.2897,-1.2897,-1.289,-1.289,-1.289,-1.289,-1.289,-1.289,-1.289,-1.2883,-1.2883,-1.2882,0,0,0,0,0,0,0,0,0,0,0,0,0,-1.2904,-1.291,-1.2897,-1.2896,-1.2896,-1.289,-1.289,-1.289,-1.289,-1.289,-1.289,-1.289,-1.2883,-1.2883,-1.2882,-1.2877,0,0,-1.2881,-1.2881,0,0,0,0,0,0,0,0,-1.2905,-1.2904,-1.2896,-1.2896,-1.2896,-1.2891,-1.2892,-1.2885,-1.289,-1.2892,-1.289,-1.289,-1.2885,-1.2885,-1.2883,-1.2877,-1.2876,-1.2881,-1.2881,-1.288,-1.288,0,0,0,0,0,0,0,-1.2905,-1.2904,-1.2894,-1.2896,-1.2896,-1.2896,-1.2895,-1.2891,-1.2888,-1.2892,-1.2892,-1.2891,-1.2885,-1.2884,-1.2883,-1.2876,-1.2881,-1.2881,-1.288,-1.288,-1.2867,-1.2866,0,0,0,0,0,0,-1.2906,-1.2904,-1.2894,-1.2894,-1.29,-1.2896,-1.2895,-1.2892,-1.2888,-1.2887,-1.2891,-1.2891,-1.2884,-1.2883,-1.2883,-1.2877,-1.288,-1.288,-1.288,-1.2867,-1.2867,-1.2866,0,0,0,0,0,0,-1.2906,-1.2905,-1.2895,-1.2899,-1.2898,-1.2895,-1.2892,-1.2892,-1.289,-1.2887,-1.2887,-1.2889,-1.2884,-1.2883,-1.2879,-1.2877,-1.288,-1.288,-1.2867,-1.2867,-1.2867,-1.2865,0,0,0,0,0,0,-1.2906,-1.2905,-1.2902,-1.2899,-1.2898,-1.289,-1.2892,-1.2892,-1.289,-1.289,-1.2886,-1.2885,-1.2884,-1.2879,-1.2878,-1.2876,-1.2879,-1.2867,-1.2867,-1.2867,-1.2865,-1.2865,-1.2865,0,0,0,0,0,-1.2907,-1.2902,-1.2902,-1.2901,-1.2895,-1.289,-1.2889,-1.2888,-1.2889,-1.2887,-1.2886,-1.2886,-1.2877,-1.2879,-1.2878,-1.2876,-1.2867,-1.2867,-1.2867,-1.2866,-1.2865,-1.2865,0,0,0,0,0,0,-1.2905,-1.2902,-1.2902,-1.2896,-1.2893,-1.289,-1.2887,-1.2888,-1.2884,-1.2885,-1.2883,-1.2883,-1.2878,-1.2876,-1.2878,-1.2871,-1.2872,-1.2872,-1.2872,-1.2872,-1.2871,-1.2872,-1.2879,0,0,0,0,0,-1.2904,-1.29,-1.2898,-1.2893,-1.2892,-1.289,-1.2888,-1.2887,-1.2885,-1.2883,-1.2881,-1.2879,-1.2876,-1.2874,-1.2871,-1.2866,-1.2865,-1.2864,-1.2863,-1.2863,-1.2862,-1.2861,-1.286,-1.2866,-1.2866,-1.2866,0,0,-1.2902,-1.2899,-1.2897,-1.2893,-1.289,-1.2887,-1.2889,-1.2885,-1.2883,-1.2883,-1.2878,-1.2877,-1.2874,-1.287,-1.2868,-1.2868,-1.2861,-1.2863,-1.2862,-1.2862,-1.286,-1.286,-1.2859,-1.2865,-1.2865,-1.2865,0,0,-1.2896,-1.2894,-1.289,-1.2888,-1.2885,-1.2884,-1.2883,-1.288,-1.288,-1.2875,-1.2876,-1.2873,-1.2868,-1.2866,-1.2864,-1.2859,-1.2859,-1.2859,-1.2856,-1.2855,-1.2854,-1.2854,-1.2852,-1.2852,-1.2858,-1.2858,-1.2858,0,-1.2893,-1.2888,-1.2887,-1.2884,-1.2882,-1.2883,-1.2879,-1.2878,-1.2874,-1.2873,-1.2874,-1.2868,-1.2866,-1.2861,-1.286,-1.2859,-1.2858,-1.2859,-1.2854,-1.2854,-1.2854,-1.2852,-1.2852,-1.2858,-1.2858,-1.2858,-1.2858,0,-1.2885,-1.2882,-1.2879,-1.2876,-1.2874,-1.2871,-1.287,-1.2868,-1.2868,-1.2867,-1.2864,-1.2862,-1.2859,-1.2858,-1.2857,-1.2853,-1.2854,-1.2855,-1.2856,-1.2853,-1.2852,-1.2851,-1.2858,-1.2858,-1.2858,-1.2858,0,0,-1.2877,-1.2875,-1.2874,-1.2873,-1.287,-1.2868,-1.2865,-1.2862,-1.2861,-1.2859,-1.2856,-1.2853,-1.2854,-1.2852,-1.2852,-1.285,-1.2847,-1.2851,-1.2851,-1.2851,-1.2843,-1.2843,-1.2842,-1.2848,-1.2847,-1.2847,-1.2844,0,-1.2871,-1.2865,-1.2865,-1.286,-1.2858,-1.2859,-1.2857,-1.2855,-1.2855,-1.2853,-1.2852,-1.285,-1.2851,-1.285,-1.2849,-1.2848,-1.2846,-1.2848,-1.2846,-1.2845,-1.2846,-1.2841,-1.284,-1.2837,-1.2843,-1.2843,-1.2843,0,-1.2863,-1.2861,-1.2856,-1.2855,-1.2854,-1.2851,-1.285,-1.2848,-1.2846,-1.2846,-1.2845,-1.2846,-1.2843,-1.2845,-1.2842,-1.2844,-1.2843,-1.2842,-1.2842,-1.2842,-1.2844,-1.2841,-1.2836,-1.2835,-1.2842,-1.2842,-1.2842,0,-1.2857,-1.2854,-1.285,-1.285,-1.2848,-1.2847,-1.2846,-1.2845,-1.2844,-1.2843,-1.2842,-1.284,-1.2839,-1.2838,-1.2839,-1.284,-1.2836,-1.2837,-1.2836,-1.2836,-1.2834,-1.2834,-1.2829,-1.2834,-1.2834,-1.2834,-1.2834,0,-1.2851,-1.2847,-1.2848,-1.2846,-1.2843,-1.2844,-1.2841,-1.284,-1.284,-1.2838,-1.2839,-1.2837,-1.2838,-1.2836,-1.2837,-1.2834,-1.2834,-1.2834,-1.2834,-1.2834,-1.2834,-1.2833,-1.2833,-1.2834,-1.2834,-1.2834,-1.2834,0,-1.2844,-1.2844,-1.2841,-1.284,-1.284,-1.2838,-1.2838,-1.2836,-1.2836,-1.2834,-1.2834,-1.2834,-1.2832,-1.2833,-1.2831,-1.2831,-1.2828,-1.2829,-1.2829,-1.2829,-1.2827,-1.2827,-1.2821,-1.282,-1.2826,-1.2826,-1.2826,0,-1.2839,-1.2837,-1.2837,-1.2836,-1.2835,-1.2833,-1.2832,-1.2833,-1.2832,-1.2832,-1.283,-1.2829,-1.2828,-1.2826,-1.2826,-1.2825,-1.2825,-1.2823,-1.2825,-1.2825,-1.2826,-1.2826,-1.2826,-1.2823,-1.2823,-1.2823,-1.2823,0,-1.2831,-1.2832,-1.283,-1.2829,-1.2828,-1.2827,-1.2827,-1.2826,-1.2827,-1.2826,-1.2825,-1.2824,-1.2823,-1.2822,-1.2821,-1.2821,-1.2822,-1.2822,-1.2822,-1.2821,-1.2821,-1.2822,-1.2828,-1.2822,-1.2822,-1.2822,-1.2822,-1.2822,-1.2825,-1.2824,-1.2823,-1.2822,-1.2822,-1.2822,-1.282,-1.2821,-1.282,-1.2819,-1.282,-1.2819,-1.2819,-1.2818,-1.2818,-1.2817,-1.2818,-1.2817,-1.2817,-1.2817,-1.2817,-1.2822,-1.2817,-1.2817,-1.2817,-1.2817,-1.2817,0,-1.2817,-1.2818,-1.2817,-1.2816,-1.2815,-1.2817,-1.2817,-1.2816,-1.2815,-1.2815,-1.2814,-1.2813,-1.2813,-1.2813,-1.2813,-1.2812,-1.2813,-1.2812,-1.2812,-1.2812,-1.2816,-1.2816,-1.2812,-1.2812,-1.2812,-1.2812,-1.2812,-1.2812,-1.2813,-1.2811,-1.2812,-1.281,-1.281,-1.2809,-1.2809,-1.2809,-1.2809,-1.2808,-1.2807,-1.2808,-1.2809,-1.2809,-1.2808,-1.2809,-1.2808,-1.2807,-1.2808,-1.2811,-1.2812,-1.2812,-1.2813,-1.2807,-1.2807,-1.2804,-1.2804,-1.2804]},{"header":{"parameterUnit":"m.s-1","parameterCategory":1,"la1":30.2991,"la2":30.254,"lo1":-89.0895,"lo2":-89.0444,"dy":0.0017,"dx":0.0017,"nx":28,"ny":28,"refTime":"2024-05-06T21:00:00:Z","depth":0,"parameterNumber":3,"parameterNumberName":"V-component_of_WINDS"},"data":[0,0,0,0,0,0,0,0,0,0,0,0,0,0,0,0,0,0,0,0,0,0,0,0,0,0,0,0,0,0,0,0,0,0,0,0,0,0,0,0,0,0,0,0,0,0,0,0,0,0,0,0,0,0,0,0,0,0,5.6854,5.6855,0,5.6921,5.6921,5.6922,5.6893,5.6892,5.689,5.6889,5.6952,5.6955,5.6958,0,0,0,0,0,0,0,0,0,0,0,0,0,5.6697,5.67,5.6854,5.6855,5.6856,5.6921,5.6921,5.6922,5.6894,5.6892,5.689,5.6888,5.6951,5.6955,5.6959,0,0,0,0,0,0,0,0,0,0,0,0,0,5.6765,5.6701,5.6854,5.6849,5.6849,5.692,5.6922,5.6923,5.6894,5.6892,5.6889,5.6887,5.695,5.6955,5.6959,5.7037,0,0,5.6974,5.6976,0,0,0,0,0,0,0,0,5.6761,5.677,5.6849,5.685,5.685,5.6896,5.689,5.6961,5.6895,5.6877,5.6889,5.6886,5.6935,5.6941,5.6959,5.704,5.7043,5.6974,5.6977,5.6979,5.6981,0,0,0,0,0,0,0,5.6756,5.6767,5.688,5.685,5.6851,5.6842,5.6849,5.6903,5.6919,5.6878,5.6876,5.6885,5.6935,5.6954,5.696,5.7044,5.6974,5.6978,5.6981,5.6983,5.7193,5.7196,0,0,0,0,0,0,5.6752,5.6764,5.6878,5.6882,5.6799,5.6847,5.6855,5.6884,5.6918,5.6921,5.6887,5.6883,5.6947,5.6954,5.6962,5.7057,5.6979,5.6984,5.6986,5.7191,5.7194,5.7197,0,0,0,0,0,0,5.6749,5.6763,5.6875,5.6823,5.6836,5.6853,5.6885,5.6886,5.6906,5.6925,5.6927,5.6904,5.6946,5.6955,5.7019,5.7058,5.6986,5.699,5.7187,5.7192,5.7195,5.7245,0,0,0,0,0,0,5.6745,5.6762,5.6792,5.6824,5.6839,5.6933,5.6888,5.6889,5.6915,5.6911,5.6941,5.6944,5.6944,5.7012,5.7024,5.7064,5.6994,5.7184,5.7189,5.7194,5.724,5.7251,5.726,0,0,0,0,0,5.6739,5.6802,5.6794,5.6808,5.6878,5.6935,5.6944,5.6945,5.6918,5.6948,5.6961,5.6943,5.7052,5.7019,5.7032,5.7074,5.7181,5.7188,5.7194,5.7236,5.7249,5.7259,0,0,0,0,0,0,5.6773,5.6806,5.6797,5.6873,5.6902,5.693,5.6968,5.6958,5.6993,5.6988,5.6986,5.6993,5.7059,5.7072,5.7035,5.7151,5.7112,5.7121,5.714,5.7153,5.7162,5.7158,5.6998,0,0,0,0,0,5.679,5.6835,5.6861,5.6925,5.694,5.6952,5.6976,5.6975,5.7004,5.7015,5.7032,5.706,5.71,5.7127,5.7165,5.7242,5.7248,5.7277,5.7287,5.7294,5.7302,5.7345,5.7358,5.7217,5.7217,5.7217,0,0,5.6824,5.6848,5.6876,5.6932,5.6954,5.7,5.6962,5.7011,5.7045,5.7022,5.7085,5.7098,5.7128,5.72,5.7232,5.7213,5.7343,5.7302,5.7308,5.7312,5.7353,5.7366,5.7378,5.7221,5.722,5.7219,0,0,5.691,5.6932,5.6989,5.7012,5.7047,5.7055,5.7069,5.7099,5.7108,5.7171,5.7155,5.7194,5.7264,5.7287,5.7307,5.7404,5.7389,5.7416,5.7466,5.7508,5.7519,5.7529,5.7564,5.7577,5.7424,5.7424,5.7424,0,5.6947,5.7017,5.7019,5.7071,5.7096,5.7079,5.7136,5.7158,5.7203,5.722,5.7199,5.7287,5.7306,5.7383,5.7407,5.7424,5.7439,5.7413,5.7518,5.7528,5.7537,5.757,5.7583,5.7427,5.7427,5.7426,5.7426,0,5.7062,5.7111,5.7152,5.7199,5.7229,5.7282,5.7291,5.7321,5.7317,5.7327,5.7391,5.7414,5.7457,5.7475,5.747,5.7552,5.7539,5.7518,5.7479,5.7553,5.7585,5.7598,5.7431,5.743,5.7429,5.7429,0,0,5.7171,5.7219,5.7234,5.7256,5.7294,5.733,5.7383,5.7428,5.7454,5.7485,5.753,5.759,5.7571,5.7595,5.7592,5.7629,5.7705,5.7603,5.7604,5.7622,5.7797,5.7814,5.7828,5.7695,5.7698,5.77,5.7795,0,5.7261,5.7356,5.736,5.7446,5.7492,5.7477,5.7523,5.7551,5.7562,5.76,5.7611,5.7655,5.7626,5.764,5.7676,5.7688,5.774,5.7681,5.7736,5.7738,5.773,5.7845,5.7862,5.7951,5.7807,5.7809,5.781,0,5.7378,5.7416,5.7508,5.7541,5.756,5.7602,5.7644,5.7681,5.7712,5.7717,5.7745,5.7738,5.7791,5.775,5.7824,5.7784,5.7806,5.7816,5.7819,5.7825,5.7779,5.7854,5.7979,5.7993,5.783,5.7828,5.7827,0,5.745,5.7523,5.7589,5.7607,5.7647,5.7677,5.7694,5.7723,5.775,5.7785,5.7803,5.7843,5.7866,5.7897,5.7901,5.7871,5.7975,5.7934,5.7981,5.7981,5.8004,5.8002,5.8135,5.8017,5.8017,5.8016,5.8016,0,5.755,5.7607,5.7622,5.7662,5.7725,5.7728,5.779,5.7805,5.7831,5.7873,5.7862,5.7901,5.7903,5.7943,5.7946,5.8007,5.8017,5.8022,5.8023,5.8024,5.8024,5.8039,5.8034,5.802,5.8019,5.8019,5.8018,0,5.7641,5.7653,5.7723,5.7756,5.7765,5.7811,5.7838,5.7876,5.7886,5.7939,5.7952,5.7967,5.8014,5.8021,5.8074,5.8077,5.815,5.8143,5.8141,5.814,5.8186,5.8182,5.8334,5.8354,5.8222,5.8224,5.8225,0,5.7705,5.7749,5.7787,5.7816,5.7836,5.7881,5.7909,5.7913,5.7943,5.7982,5.8015,5.8061,5.8098,5.8174,5.8189,5.823,5.8225,5.8275,5.8231,5.8231,5.8227,5.8225,5.8229,5.8284,5.8285,5.8286,5.8287,0,5.7817,5.7822,5.7864,5.7909,5.7943,5.7978,5.8011,5.8034,5.8042,5.8076,5.8125,5.8154,5.821,5.8256,5.8298,5.8314,5.8302,5.8301,5.8314,5.8316,5.8314,5.8317,5.8165,5.8298,5.8297,5.8296,5.8295,5.8295,5.7897,5.7936,5.797,5.8018,5.8043,5.8075,5.8113,5.8128,5.817,5.8218,5.8217,5.8271,5.8301,5.8356,5.8375,5.8416,5.84,5.8418,5.8423,5.8428,5.8433,5.8307,5.8424,5.8423,5.8423,5.8423,5.8422,0,5.801,5.8031,5.8075,5.8123,5.8161,5.8148,5.8184,5.8216,5.8264,5.8294,5.8331,5.8388,5.8433,5.8452,5.8495,5.8525,5.8521,5.8536,5.8534,5.8539,5.8445,5.843,5.8539,5.8539,5.8539,5.8539,5.8539,5.8539,5.8073,5.8139,5.8148,5.8226,5.8247,5.8301,5.8323,5.8352,5.8376,5.844,5.8478,5.8491,5.8517,5.8563,5.8603,5.8607,5.8624,5.8642,5.8644,5.8557,5.8545,5.8534,5.852,5.8646,5.8646,5.8735,5.8736,5.8736]}]]